EHI
0 0 0 0 0 0 0 0 0 0 0 0 0 0 0 0 0 1 1 1 1 3 3 2 2 3 5 5 3 2 1 0 0 0 0 1 0 1 1 1 0 0 0
0 0 0 0 0 0 0 0 0 0 0 0 0 0 0 0 0 0 0 0 1 3 3 1 1 2 3 3 2 1 0 0 0 0 0 1 0 0 0 0 0 0 0
0 0 0 0 0 0 0 0 0 0 0 0 0 0 0 0 0 0 0 0 1 2 2 1 0 0 1 1 1 0 0 0 0 0 0 0 0 0 0 0 0 1 1
0 0 0 0 0 0 0 0 0 0 0 0 0 0 0 0 0 0 0 0 0 1 1 0 0 0 0 0 0 1 1 0 0 0 0 0 0 0 0 0 0 0 0
0 0 1 1 1 0 0 0 0 0 0 0 0 0 0 0 0 0 0 0 0 0 0 0 0 0 0 0 1 2 1 0 0 0 0 0 0 0 0 0 0 0 0
0 0 1 2 1 0 0 0 0 0 0 0 0 0 0 0 0 0 0 1 0 0 0 0 0 0 0 0 1 1 1 0 0 0 0 0 0 0 0 0 0 0 0
0 0 1 2 1 0 0 0 0 0 0 0 0 0 0 0 0 0 0 0 0 0 0 0 0 0 0 0 0 0 0 0 0 0 0 0 1 2 1 0 0 0 0
0 0 1 2 1 0 0 0 0 0 0 0 0 0 0 1 1 1 1 1 1 1 1 1 0 1 2 2 2 1 0 0 0 0 0 0 1 3 1 0 0 0 0
0 0 0 0 0 0 0 0 0 0 0 0 0 0 1 2 2 2 3 3 3 3 3 3 3 5 7 6 5 3 1 0 0 0 0 0 2 4 2 0 0 0 0
0 0 0 0 0 0 0 0 0 0 0 0 0 0 1 2 2 2 3 5 6 6 6 6 8 11 12 9 6 4 1 0 0 0 0 1 4 6 5 2 1 1 0
0 0 0 0 0 0 0 0 0 0 0 0 0 0 1 1 1 1 2 4 5 6 6 8 12 12 11 8 5 4 2 0 0 0 0 3 6 9 9 6 3 2 1
0 0 0 0 0 0 0 0 0 0 0 0 0 0 0 0 0 0 0 2 3 4 5 7 10 9 7 5 4 4 2 1 0 0 2 6 10 12 12 9 5 3 1
0 0 1 1 1 0 0 1 1 1 0 0 0 0 0 0 0 0 0 1 2 3 4 5 5 5 4 3 3 3 2 1 0 0 3 9 14 15 14 10 6 3 1
1 1 2 2 2 1 1 1 2 1 1 1 1 0 0 0 0 0 1 2 3 3 3 3 3 3 3 3 3 3 3 1 1 0 3 9 15 17 16 13 9 5 2
2 2 3 3 3 3 1 1 1 1 1 2 2 1 1 0 0 0 1 2 3 3 3 3 3 3 3 3 3 3 3 3 2 1 2 7 13 16 18 17 13 8 5
4 4 4 4 4 3 1 1 1 1 2 3 4 2 1 0 0 1 2 3 3 3 3 3 3 3 2 3 3 3 3 3 3 2 2 4 9 14 16 17 15 12 10
8 8 6 5 4 3 2 1 2 2 3 3 3 2 1 0 1 2 3 3 3 3 2 2 2 1 1 2 2 2 2 2 3 3 2 2 4 8 12 15 15 14 13
14 11 8 7 6 5 4 3 3 4 4 3 2 1 1 1 2 3 3 3 3 3 2 2 2 1 2 2 1 1 2 3 3 3 2 1 0 2 6 10 13 13 12
19 15 11 9 8 8 6 4 4 5 5 4 3 3 4 4 3 3 3 3 4 3 3 3 3 3 2 1 0 1 2 2 2 2 1 0 0 0 2 4 7 9 8
24 20 15 12 10 9 7 5 4 4 4 5 5 6 7 6 4 4 4 4 4 3 3 3 3 3 2 1 0 0 1 1 1 1 0 0 0 0 0 1 2 3 4
29 25 22 18 14 12 9 7 5 4 5 6 7 8 8 7 5 4 4 4 4 3 2 3 3 2 1 0 0 0 0 0 0 0 0 0 0 0 0 0 0 0 1
35 32 29 27 23 18 13 9 7 6 6 6 7 8 9 8 7 6 5 4 4 3 2 2 3 1 0 0 0 0 0 0 0 0 0 0 0 0 0 0 0 0 0
39 37 36 35 31 25 19 15 12 10 7 7 8 8 8 8 9 8 7 6 6 3 2 2 2 1 0 0 0 0 0 0 0 0 0 0 0 0 0 0 0 0 0
39 40 41 40 35 30 26 23 20 15 10 9 9 9 8 8 10 11 10 9 8 5 3 3 2 0 0 0 0 0 0 0 0 0 0 0 0 0 0 0 0 0 0
41 44 46 45 38 32 30 29 27 20 14 12 11 9 8 8 10 12 12 10 9 7 6 5 2 1 0 0 0 0 0 0 0 0 0 0 0 0 0 0 0 0 0
45 47 50 49 42 33 30 32 30 25 18 13 11 8 7 8 10 13 13 11 9 9 8 5 3 1 0 0 0 0 0 0 0 0 0 0 0 0 0 0 0 0 0
Wind_Speed
2 4 12 14 15 15 16 16 16 17 17 17 17 17 17 17 17 17 16 16 16 15 15 15 14 15 15 15 14 14 14 14 14 15 15 15 15 14 15 15 14 10 15
5 6 12 13 14 15 15 15 15 16 16 16 16 16 16 16 16 16 15 15 15 15 14 14 14 14 14 14 13 13 14 14 14 14 15 13 14 14 14 15 13 9 14
7 6 10 13 14 14 14 15 15 15 15 15 14 14 15 15 15 15 15 14 14 14 14 13 13 13 12 12 12 12 12 13 13 14 13 7 9 13 14 14 14 14 14
8 6 9 13 13 14 14 14 14 14 14 13 13 13 13 14 14 14 14 14 13 13 13 12 12 11 11 11 10 10 11 11 12 12 6 5 6 12 14 14 13 13 13
8 6 8 14 13 13 13 13 13 13 13 13 13 12 13 13 13 13 13 13 13 12 12 11 11 10 10 9 9 9 9 10 10 9 5 5 5 11 13 13 13 13 12
7 6 9 13 13 13 13 13 13 13 13 13 12 12 12 12 12 12 12 12 12 11 11 10 9 9 8 8 8 8 8 9 8 5 5 5 4 11 13 12 12 12 12
7 5 7 13 13 13 13 13 12 12 12 12 12 11 11 10 11 11 11 11 11 10 10 9 8 7 7 7 7 7 7 8 6 5 5 4 5 11 12 12 12 12 12
9 6 6 13 14 13 13 12 12 11 11 11 11 10 10 10 10 10 10 10 10 9 8 8 7 6 6 5 6 7 7 7 7 6 5 4 8 11 12 12 11 11 11
8 6 4 6 9 12 12 12 11 10 10 10 10 10 9 9 9 9 9 9 9 8 7 7 6 5 5 5 5 6 6 7 5 4 6 4 9 12 12 12 11 11 11
7 5 4 5 5 5 6 10 10 10 9 9 9 9 8 8 9 9 8 8 7 7 6 5 5 4 3 3 5 5 6 6 4 3 3 5 11 12 12 12 11 10 10
6 4 4 4 4 4 4 7 7 8 8 8 7 8 6 3 3 5 7 7 7 6 5 5 4 3 2 2 4 4 4 3 3 3 3 8 11 12 12 11 11 11 10
6 5 4 5 5 4 4 4 2 3 3 3 2 3 2 2 2 4 6 7 7 6 4 4 3 3 2 1 2 3 2 3 3 3 4 10 11 12 12 11 11 11 10
7 6 5 5 5 4 3 3 1 1 2 2 2 3 2 2 2 2 1 2 2 2 1 1 1 0 1 1 1 1 3 2 2 2 4 11 11 12 12 11 11 10 10
6 5 5 5 5 4 4 3 3 2 2 2 2 3 3 2 2 2 2 2 1 1 1 1 0 0 1 1 2 2 3 3 2 2 4 11 11 12 12 12 11 11 10
6 5 4 4 5 4 4 3 3 3 3 3 2 2 3 3 2 2 2 1 1 1 2 1 1 1 1 1 2 2 3 3 3 3 3 10 12 12 12 12 12 11 11
6 5 4 4 4 4 3 3 3 3 3 2 2 2 3 3 3 2 2 2 1 1 2 2 2 2 1 1 2 2 3 3 3 4 3 6 11 12 12 12 12 12 11
7 6 5 4 4 4 3 3 2 2 3 2 2 2 3 3 3 3 2 2 1 1 1 1 1 1 1 1 1 2 2 3 3 4 4 3 4 10 12 12 12 12 12
7 6 5 5 4 4 3 3 2 2 2 2 2 2 2 3 3 3 2 2 1 1 1 1 1 1 0 0 1 1 1 2 3 3 4 4 3 4 8 12 12 12 12
8 7 5 4 4 4 3 2 2 2 2 1 2 2 2 3 3 3 2 2 1 1 1 1 1 1 1 1 1 1 1 1 2 3 3 4 4 3 3 6 9 10 11
7 7 6 5 5 4 2 2 1 1 1 1 1 2 2 2 2 2 2 2 1 1 1 1 1 1 1 1 1 0 1 1 1 2 3 3 3 4 3 3 3 5 9
7 6 6 5 4 4 2 2 1 1 0 0 0 1 2 2 2 2 1 1 1 1 2 1 1 1 1 1 1 1 2 1 0 1 2 2 3 3 4 4 3 2 3
8 7 7 6 5 5 3 2 2 2 1 1 0 0 1 1 1 2 2 2 2 1 1 1 1 1 0 1 2 1 2 3 2 1 1 2 2 2 3 4 3 3 2
9 9 8 7 6 5 4 2 2 2 1 1 1 0 1 1 1 1 2 2 2 2 1 1 1 2 1 1 2 3 2 2 2 2 1 1 1 2 2 2 4 3 4
10 9 8 7 6 5 5 4 4 3 2 2 1 1 2 2 2 2 2 2 2 2 2 2 2 2 2 1 1 1 2 3 2 1 2 1 0 1 1 2 3 3 3
10 9 8 7 6 5 5 5 4 3 2 1 1 2 2 1 1 2 2 2 2 2 2 2 1 2 2 2 1 1 0 0 1 2 1 2 1 1 1 1 1 2 2
8 8 8 7 6 6 6 5 5 4 3 2 2 2 1 1 1 2 2 2 2 2 2 2 2 2 2 1 1 1 1 1 1 2 1 0 1 2 1 0 0 1 1
Wind_Direction
88 104 102 100 99 97 94 93 92 94 95 97 99 101 104 107 110 112 114 114 114 113 112 111 111 112 114 114 115 118 119 118 119 121 121 119 119 119 118 116 113 112 114
129 110 104 103 102 100 98 97 96 96 98 98 101 103 105 108 111 113 115 116 115 115 113 112 111 111 113 115 117 119 120 121 123 122 120 119 119 118 117 117 116 118 118
118 110 107 106 105 103 101 101 100 100 100 101 102 105 108 110 113 114 116 116 116 116 115 114 113 113 113 115 117 118 119 121 122 120 115 107 113 116 118 120 120 120 120
119 113 113 111 109 107 106 104 103 102 102 103 104 107 112 113 114 115 116 118 118 118 117 116 115 114 113 114 115 117 122 123 124 123 114 111 117 121 121 122 123 123 123
115 115 120 115 113 112 111 107 106 105 103 106 106 108 114 115 116 117 118 120 121 120 119 118 117 115 115 114 115 116 119 123 124 119 116 114 116 129 128 127 125 126 127
117 118 125 120 117 116 115 112 110 109 107 108 108 110 115 118 121 122 122 123 123 123 122 122 121 121 120 119 119 120 118 118 118 115 120 126 129 135 132 130 129 128 128
122 121 126 124 123 121 119 116 114 114 114 114 115 115 118 122 125 126 128 128 128 127 126 124 123 124 122 119 118 124 119 117 118 120 124 131 140 139 135 132 131 130 131
129 125 125 128 128 127 124 121 119 118 118 118 119 120 124 129 132 133 134 133 131 129 131 130 128 128 126 125 122 123 121 122 125 129 130 138 148 144 141 138 137 136 135
127 125 121 131 133 132 129 127 126 124 124 124 125 126 127 131 137 141 141 138 135 135 135 135 134 131 131 129 129 126 126 124 120 132 145 147 152 150 146 145 144 143 142
126 128 126 126 128 131 133 137 136 134 134 135 134 133 133 134 137 142 141 141 141 140 143 145 143 143 145 142 134 129 128 124 128 139 142 157 159 155 153 152 151 151 149
133 140 140 135 135 139 142 145 143 143 143 143 143 144 139 125 124 135 146 150 151 152 156 158 159 161 162 147 143 140 128 117 135 147 154 163 165 162 158 158 157 156 155
152 161 158 156 158 161 156 136 139 144 137 136 147 152 145 145 153 160 158 161 162 165 170 175 183 178 163 105 121 130 126 131 146 156 170 172 170 167 164 164 163 162 161
153 158 163 166 167 169 153 149 161 154 147 155 169 175 160 150 151 156 140 152 169 178 176 187 188 167 158 142 142 142 150 145 157 174 176 176 173 171 169 168 168 167 167
140 145 156 157 156 161 157 163 168 169 167 170 181 175 162 156 158 162 164 175 176 171 191 218 222 192 172 173 167 163 165 158 165 175 175 176 175 174 172 172 173 173 171
142 144 152 146 140 143 147 163 161 168 169 175 168 169 162 155 159 158 164 173 179 181 190 202 202 177 178 180 173 163 167 169 171 173 175 179 178 179 179 179 177 178 177
154 156 151 141 140 135 138 146 152 161 163 155 160 168 156 151 151 143 145 156 180 190 190 187 186 179 182 162 166 177 179 173 175 174 182 185 186 186 186 186 185 185 185
164 162 157 152 142 136 136 136 140 153 149 151 167 165 155 154 154 151 153 168 197 197 184 163 162 153 160 156 174 192 186 182 179 179 184 186 192 195 193 194 193 192 192
163 164 168 158 143 143 139 131 127 137 137 150 156 160 166 163 159 151 160 186 202 183 153 160 158 130 127 163 206 220 199 187 186 182 184 188 189 197 202 200 197 196 197
166 165 165 160 154 153 149 140 129 122 129 153 154 163 180 178 170 162 175 193 178 149 156 187 144 145 176 214 213 216 224 213 206 189 180 187 187 187 190 201 200 198 200
166 163 164 164 159 154 141 116 87 79 109 149 169 184 190 191 180 167 183 196 160 142 164 165 158 169 187 209 226 277 268 245 213 188 189 179 180 184 184 194 196 204 205
163 162 162 163 165 151 142 142 141 170 176 110 197 182 178 189 192 181 191 186 163 165 193 181 160 160 222 138 80 358 335 318 269 215 182 161 176 180 175 183 179 188 202
171 169 164 166 167 164 163 161 156 151 159 167 144 116 164 182 190 178 172 192 187 164 160 153 140 140 210 143 138 110 355 350 350 271 192 177 185 172 176 184 174 178 196
176 176 174 172 170 170 161 137 119 86 50 41 0 300 247 205 194 183 182 186 180 162 180 191 168 159 197 252 166 152 159 223 298 327 303 191 171 162 183 174 175 186 193
185 179 172 171 171 173 164 153 151 152 169 201 194 209 234 220 206 201 201 191 184 173 179 196 170 164 161 213 255 205 185 172 167 301 334 356 117 172 186 194 191 194 196
181 176 173 171 174 173 167 164 160 167 182 187 178 197 227 243 236 219 200 197 193 189 188 181 161 162 162 180 207 232 207 159 145 157 273 333 2 332 195 201 194 189 196
173 173 172 170 178 177 172 168 169 176 179 170 183 196 227 253 272 258 217 195 193 192 191 189 178 169 175 179 193 169 157 162 181 156 177 230 325 314 341 82 202 207 196